Location: Chevoux
(46.3801°N, 4.9476°E)
Time: 22:45:05
(UTC+00:00)

Cosmos 1833 Rocket - Pass Details

Date: 28 January 2021
Orbit: 833 x 839 km, 71.0° (Epoch: 04 March)

Event Time Altitude Azimuth Distance (km) Brightness Sun altitude
Rises 17:17:30 0° 337° (NNW) 3,392 5.9 -7.0°
Reaches altitude 10° 17:20:04 10° 344° (NNW) 2,454 5.1 -7.4°
Maximum altitude 17:25:26 43° 56° (NE) 1,154 3.0 -8.3°
Drops below altitude 10° 17:30:45 10° 127° (SE) 2,444 4.8 -9.2°
Sets 17:33:19 0° 134° (SE) 3,375 5.5 -9.6°
